Location: Barton Flats Campground
(34.1722°N, 116.8753°W)
Time: 20:09:42
(UTC+00:00)

Cosmos 1484 Rocket - Pass Details

Date: 08 August 2020
Orbit: 507 x 558 km, 97.4° (Epoch: 01 October)

Event Time Altitude Azimuth Distance (km) Brightness Sun altitude
Rises 12:17:41 0° 14° (NNE) 2,615 6.9 -9.7°
Reaches altitude 10° 12:19:48 10° 17° (NNE) 1,726 6.0 -9.3°
Maximum altitude 12:23:29 69° 101° (E) 547 3.0 -8.6°
Drops below altitude 10° 12:27:10 10° 185° (S) 1,721 5.1 -7.9°
Sets 12:29:16 0° 187° (S) 2,608 5.9 -7.5°
